Tracking 21612 objects as of 19-Oct-2020
HD Live streaming from Space Station
objects crossing your sky now

COSMOS 1275 DEB

Track COSMOS 1275 DEB now!
10-day predictions


NORAD ID: 39952
Int'l Code: 1981-053NU
Perigee: 1,002.6 km
Apogee: 2,071.9 km
Inclination: 66.0 °
Period: 116.6 minutes
Semi major axis: 7908 km
RCS: 0.009 m2 (small)
Launch date: April 25, 1981
Source: Commonwealth of Independent States (former USSR) (CIS)
Launch site: PLESETSK MISSILE AND SPACE COMPLEX (PKMTR)

Note: This is SATELLITE DEBRIS
aabbcc
Your satellite tracking list
Your tracking list is empty




NASA's NSSDC Master Catalog

Two Line Element Set (TLE):
1 39952U 81053NN  18085.56910403  .00000083  00000-0  50889-3 0  9999
2 39952  66.0295 145.0932 0676029 336.1493  20.9477 12.34472763665770
Source of the keplerian elements: AFSPC